Date String (YYYY-MM-DD hh:mm:ss) UTC,Instrument flags,Ambient pressure (hPa),Sample flow (lpm),Bypass flow (lpm),Sample temperature (°C),Ambient temperature (°C),ASC tube jacket temperature (°C),LED temperature (°C),Box temperature (°C),Sample RH (%),Span deviation,Mass concentration (μg/m³),Mass concentration (μg/m³),Mass concentration (μg/m³)
DateTimeUTC,F1_M11,P_M11,Q1_M11,Q2_M11,T1_M11,T2_M11,T3_M11,T4_M11,T5_M11,U1_M11,ZSPAN_M11,X0_M11,X2_M11,X1_M11
2022-12-06 11:00:00,,0819.3,4.99,0.00,22.0,20.6,00.0,31.0,23.7,17.9,0000.0,0008.14,0002.50,0001.71
2022-12-06 11:01:00,,0819.4,5.00,0.00,22.0,21.0,00.0,30.9,23.9,17.7,0000.0,0008.02,0002.46,0001.70
2022-12-06 11:02:00,,0819.4,5.00,0.00,22.1,21.8,00.0,30.9,24.1,17.5,0000.0,0007.94,0002.43,0001.68
2022-12-06 11:03:00,,0819.4,4.99,0.00,22.2,21.8,00.0,31.0,24.2,17.5,0000.0,0007.73,0002.39,0001.66
2022-12-06 11:04:00,,0819.4,4.99,0.00,22.2,21.4,00.0,31.0,24.1,17.4,0000.0,0007.14,0002.33,0001.64
2022-12-06 11:05:00,,0819.4,5.00,0.00,22.2,21.1,00.0,31.1,24.1,17.5,0000.0,0006.35,0002.25,0001.63
2022-12-06 11:06:00,,0819.4,5.00,0.00,22.1,20.9,00.0,31.1,24.0,17.6,0000.0,0007.08,0002.18,0001.60
2022-12-06 11:07:00,,0819.3,5.00,0.00,22.1,20.7,00.0,31.1,23.9,17.6,0000.0,0005.46,0002.12,0001.57
2022-12-06 11:08:00,,0819.3,5.00,0.00,22.1,20.7,00.0,31.1,23.9,17.8,0000.0,0005.31,0002.15,0001.55
2022-12-06 11:09:00,,0819.3,5.00,0.00,22.1,20.7,00.0,31.1,23.9,17.9,0000.0,0004.83,0002.15,0001.53
2022-12-06 11:10:00,,0819.3,5.00,0.00,22.1,20.7,00.0,31.1,24.0,17.9,0000.0,0004.55,0002.11,0001.51
2022-12-06 11:11:00,,0819.3,5.00,0.00,22.1,20.7,00.0,31.1,23.9,18.0,0000.0,0004.55,0002.10,0001.52
2022-12-06 11:12:00,,0819.3,5.01,0.00,22.1,20.7,00.0,31.1,23.9,17.9,0000.0,0004.74,0002.12,0001.51
2022-12-06 11:13:00,,0819.3,5.00,0.00,22.1,20.7,00.0,31.1,24.0,17.8,0000.0,0005.27,0002.09,0001.50
2022-12-06 11:14:00,,0819.3,5.00,0.00,22.1,20.7,00.0,31.0,24.0,17.8,0000.0,0005.47,0002.10,0001.49
2022-12-06 11:15:00,,0819.3,5.00,0.00,22.1,20.7,00.0,31.0,23.9,17.7,0000.0,0005.84,0002.19,0001.50
2022-12-06 11:16:00,,0819.3,5.00,0.00,22.1,20.7,00.0,31.0,23.9,17.6,0000.0,0006.49,0002.32,0001.49
2022-12-06 11:17:00,,0819.3,5.00,0.00,22.1,20.7,00.0,31.0,23.9,17.5,0000.0,0006.21,0002.39,0001.50
2022-12-06 11:18:00,,0819.2,5.00,0.00,22.1,20.7,00.0,31.0,24.0,17.5,0000.0,0006.32,0002.41,0001.51
2022-12-06 11:19:00,,0819.2,5.00,0.00,22.1,20.7,00.0,31.0,23.9,17.5,0000.0,0006.30,0002.39,0001.51
2022-12-06 11:20:00,,0819.2,4.99,0.00,22.0,20.7,00.0,31.0,23.8,17.4,0000.0,0006.15,0002.35,0001.51
2022-12-06 11:21:00,,0819.2,5.00,0.00,22.0,20.7,00.0,31.0,23.8,17.4,0000.0,0006.03,0002.35,0001.53
2022-12-06 11:22:00,,0819.2,4.99,0.00,22.0,20.6,00.0,31.0,23.8,17.3,0000.0,0006.09,0002.38,0001.54
2022-12-06 11:23:00,,0819.2,5.01,0.00,22.0,20.5,00.0,31.0,23.8,17.2,0000.0,0006.52,0002.38,0001.55
2022-12-06 11:24:00,,0819.3,5.01,0.00,22.0,20.4,00.0,31.0,23.8,17.2,0000.0,0008.13,0002.43,0001.56
2022-12-06 11:25:00,,0819.2,5.00,0.00,21.9,20.3,00.0,31.0,23.7,17.3,0000.0,0008.12,0002.43,0001.58
2022-12-06 11:26:00,,0819.2,4.99,0.00,21.9,20.3,00.0,31.0,23.7,17.3,0000.0,0007.98,0002.40,0001.59
2022-12-06 11:27:00,,0819.1,5.00,0.00,21.9,20.3,00.0,31.0,23.7,17.3,0000.0,0007.71,0002.32,0001.58
2022-12-06 11:28:00,,0819.1,5.00,0.00,21.9,20.3,00.0,31.0,23.7,17.3,0000.0,0007.37,0002.28,0001.59
2022-12-06 11:29:00,,0819.1,5.00,0.00,21.9,20.5,00.0,30.9,23.7,17.3,0000.0,0007.37,0002.27,0001.60
2022-12-06 11:30:00,,0819.1,5.01,0.00,22.0,21.2,00.0,30.9,23.9,17.2,0000.0,0007.92,0002.34,0001.60
2022-12-06 11:31:00,,0819.1,5.00,0.00,22.1,21.9,00.0,30.8,24.1,17.1,0000.0,0008.02,0002.40,0001.60
2022-12-06 11:32:00,,0819.2,4.99,0.00,22.1,21.9,00.0,30.9,24.2,17.1,0000.0,0008.08,0002.44,0001.60
2022-12-06 11:33:00,,0819.2,4.99,0.00,22.1,21.6,00.0,31.0,24.1,17.0,0000.0,0008.33,0002.46,0001.60
2022-12-06 11:34:00,,0819.2,5.02,0.00,22.1,21.3,00.0,31.0,24.1,17.0,0000.0,0008.37,0002.49,0001.62
2022-12-06 11:35:00,,0819.2,5.01,0.00,22.1,21.0,00.0,31.0,24.0,17.0,0000.0,0006.49,0002.46,0001.62
2022-12-06 11:36:00,,0819.2,5.00,0.00,22.1,20.8,00.0,31.0,23.9,17.0,0000.0,0006.98,0002.48,0001.63
2022-12-06 11:37:00,,0819.1,5.00,0.00,22.1,20.6,00.0,31.0,23.9,17.0,0000.0,0007.14,0002.52,0001.64
2022-12-06 11:38:00,,0819.2,5.00,0.00,22.0,20.5,00.0,31.0,23.9,17.1,0000.0,0007.38,0002.60,0001.66
2022-12-06 11:39:00,,0819.2,4.99,0.00,22.0,20.5,00.0,31.0,23.9,17.1,0000.0,0007.50,0002.61,0001.67
2022-12-06 11:40:00,,0819.2,5.00,0.00,22.0,20.4,00.0,31.0,23.9,17.2,0000.0,0008.17,0002.63,0001.67
2022-12-06 11:41:00,,0819.2,4.99,0.00,22.0,20.4,00.0,31.0,23.8,17.2,0000.0,0008.09,0002.65,0001.68
2022-12-06 11:42:00,,0819.2,5.00,0.00,22.0,20.4,00.0,31.0,23.8,17.3,0000.0,0008.11,0002.66,0001.70
2022-12-06 11:43:00,,0819.1,5.00,0.00,22.0,20.4,00.0,31.0,23.8,17.4,0000.0,0008.58,0002.72,0001.71
2022-12-06 11:44:00,,0819.2,5.00,0.00,22.0,20.4,00.0,31.0,23.8,17.4,0000.0,0008.39,0002.72,0001.71
2022-12-06 11:45:00,,0819.2,5.01,0.00,22.0,20.5,00.0,31.0,23.8,17.4,0000.0,0008.24,0002.70,0001.71
2022-12-06 11:46:00,,0819.2,5.01,0.00,22.0,20.5,00.0,30.9,23.8,17.3,0000.0,0008.36,0002.70,0001.72
2022-12-06 11:47:00,,0819.2,4.99,0.00,22.0,20.5,00.0,30.9,23.8,17.3,0000.0,0008.16,0002.71,0001.73
2022-12-06 11:48:00,,0819.2,4.99,0.00,22.0,20.6,00.0,30.9,23.8,17.4,0000.0,0008.39,0002.64,0001.72
2022-12-06 11:49:00,,0819.2,5.00,0.00,21.9,20.6,00.0,30.9,23.8,17.3,0000.0,0008.24,0002.57,0001.72
2022-12-06 11:50:00,,0819.2,5.02,0.00,21.9,20.6,00.0,30.9,23.8,17.3,0000.0,0008.09,0002.55,0001.71
2022-12-06 11:51:00,,0819.2,5.00,0.00,21.9,20.5,00.0,30.9,23.8,17.4,0000.0,0007.36,0002.59,0001.71
2022-12-06 11:52:00,,0819.1,4.99,0.00,21.9,20.5,00.0,30.9,23.8,17.4,0000.0,0006.78,0002.53,0001.71
2022-12-06 11:53:00,,0819.1,5.00,0.00,21.9,20.5,00.0,30.9,23.8,17.3,0000.0,0006.32,0002.47,0001.70
2022-12-06 11:54:00,,0819.1,5.01,0.00,21.9,20.6,00.0,30.9,23.7,17.3,0000.0,0005.37,0002.37,0001.67
2022-12-06 11:55:00,,0819.1,5.01,0.00,21.9,20.5,00.0,30.9,23.7,17.4,0000.0,0005.31,0002.34,0001.66
2022-12-06 11:56:00,,0819.1,5.00,0.00,21.9,20.5,00.0,30.9,23.7,17.5,0000.0,0006.08,0002.34,0001.64
2022-12-06 11:57:00,,0819.2,4.99,0.00,21.9,20.5,00.0,30.9,23.7,17.6,0000.0,0005.89,0002.32,0001.61
2022-12-06 11:58:00,,0819.1,4.99,0.00,21.9,20.5,00.0,30.9,23.6,17.6,0000.0,0005.25,0002.30,0001.60
2022-12-06 11:59:00,,0819.0,5.00,0.00,21.9,20.5,00.0,30.9,23.6,17.7,0000.0,0004.77,0002.32,0001.58
